Location: Chiroubles
(46.1812°N, 4.6660°E)
Time: 12:01:28
(UTC+00:00)

S-56A Canister/Altair - Visible Passes

Search period start: 18 May 2021 00:00
Search period end: 28 May 2021 00:00
Orbit: 631 x 2501 km, 38.9° (Epoch: 17 May)

Date Brightness Start Highest point End Pass type
(mag) Time Alt. Az. Time Alt. Az. Time Alt. Az.
18 May 10.8 20:29:45 10° W 20:40:04 25° SW 20:48:34 10° S visible
19 May 10.8 19:55:41 10° W 20:07:06 29° SW 20:16:32 10° S visible
21 May 11.3 21:00:16 10° WSW 21:03:47 11° WSW 21:07:07 10° SW visible
22 May 11.2 20:24:28 10° W 20:30:56 14° SW 20:36:51 10° SSW visible
23 May 11.2 19:49:41 10° W 19:58:00 18° SW 20:05:35 10° SSW visible
